When you browse on this site, cookies collect data to enhance your experience and personalize the content and advertising you see.
Visit our Privacy Policy to learn more. By continuing to use the site, you agree to this use of cookies and data.
EN

Hourly Weather Godziszewo

Today, 24 September, Thursday

Time Temperature Precipitation Wind Pressure Humidity
00:00 +17°C° 0 mm 2 mps 749 mmHg 87%
01:00 +17°C° 0 mm 2 mps 748 mmHg 84%
02:00 +17°C° 0 mm 2 mps 748 mmHg 84%
03:00 +16°C° 0 mm 3 mps 748 mmHg 84%
04:00 +16°C° 0 mm 3 mps 748 mmHg 83%
05:00 +16°C° 0 mm 3 mps 748 mmHg 81%
06:00 +15°C° 0 mm 4 mps 748 mmHg 78%
07:00 +15°C° 0 mm 4 mps 748 mmHg 76%
08:00 +17°C° 0 mm 5 mps 748 mmHg 71%
09:00 +19°C° 0 mm 5 mps 748 mmHg 66%
10:00 +21°C° 0 mm 6 mps 748 mmHg 62%
11:00 +21°C° 0 mm 5 mps 749 mmHg 61%
12:00 +22°C° 0 mm 5 mps 749 mmHg 61%
13:00 +22°C° 0 mm 5 mps 749 mmHg 60%
14:00 +22°C° 0 mm 5 mps 749 mmHg 59%
15:00 +21°C° 0 mm 4 mps 749 mmHg 57%
16:00 +21°C° 0 mm 4 mps 749 mmHg 55%
17:00 +19°C° 0 mm 3 mps 750 mmHg 58%
18:00 +17°C° 0 mm 2 mps 750 mmHg 62%
19:00 +16°C° 0 mm 2 mps 750 mmHg 65%
20:00 +15°C° 0 mm 2 mps 750 mmHg 65%
21:00 +15°C° 0 mm 2 mps 750 mmHg 65%
22:00 +15°C° 0 mm 2 mps 750 mmHg 65%
23:00 +15°C° 0 mm 2 mps 749 mmHg 66%

Tomorrow, 25 September, Friday

Time Temperature Precipitation Wind Pressure Humidity
00:00 +14°C° 0 mm 3 mps 749 mmHg 68%
01:00 +14°C° 0 mm 3 mps 748 mmHg 69%
02:00 +14°C° 0.1 mm 3 mps 748 mmHg 74%
03:00 +14°C° 0.1 mm 3 mps 747 mmHg 80%
04:00 +14°C° 0.1 mm 4 mps 747 mmHg 85%
05:00 +14°C° 0.1 mm 4 mps 746 mmHg 86%
06:00 +15°C° 0.1 mm 4 mps 745 mmHg 86%
07:00 +15°C° 0.1 mm 5 mps 744 mmHg 86%
08:00 +16°C° 0.1 mm 5 mps 744 mmHg 81%
09:00 +19°C° 0.1 mm 6 mps 743 mmHg 75%
10:00 +20°C° 0.1 mm 6 mps 743 mmHg 70%
11:00 +19°C° 1.4 mm 6 mps 742 mmHg 77%
12:00 +17°C° 1.4 mm 5 mps 742 mmHg 84%
13:00 +16°C° 1.4 mm 5 mps 741 mmHg 90%
14:00 +15°C° 0.3 mm 5 mps 741 mmHg 90%
15:00 +15°C° 0.3 mm 6 mps 741 mmHg 90%
16:00 +14°C° 0.3 mm 6 mps 741 mmHg 90%
17:00 +14°C° 0.1 mm 6 mps 742 mmHg 90%
18:00 +14°C° 0.1 mm 6 mps 742 mmHg 89%
19:00 +13°C° 0.1 mm 5 mps 743 mmHg 88%
20:00 +13°C° 0 mm 5 mps 743 mmHg 89%
21:00 +12°C° 0 mm 4 mps 744 mmHg 90%
22:00 +11°C° 0 mm 4 mps 744 mmHg 91%
23:00 +11°C° 0 mm 3 mps 745 mmHg 91%

Day after tomorrow, 26 September, Saturday

Time Temperature Precipitation Wind Pressure Humidity
00:00 +10°C° 0 mm 3 mps 745 mmHg 91%
01:00 +10°C° 0 mm 2 mps 745 mmHg 91%
02:00 +9°C° 0 mm 2 mps 745 mmHg 90%
03:00 +9°C° 0 mm 2 mps 745 mmHg 90%
04:00 +9°C° 0 mm 2 mps 746 mmHg 89%
05:00 +10°C° 0 mm 1 mps 745 mmHg 88%
06:00 +11°C° 0 mm 1 mps 745 mmHg 87%
07:00 +11°C° 0 mm 1 mps 745 mmHg 86%
08:00 +12°C° 0.1 mm 2 mps 745 mmHg 84%
09:00 +12°C° 0.1 mm 3 mps 745 mmHg 83%
10:00 +13°C° 0.1 mm 4 mps 745 mmHg 82%
11:00 +13°C° 0.8 mm 5 mps 745 mmHg 84%
12:00 +13°C° 0.8 mm 6 mps 745 mmHg 87%
13:00 +12°C° 0.8 mm 7 mps 744 mmHg 89%
14:00 +14°C° 1.7 mm 6 mps 744 mmHg 90%
15:00 +14°C° 1.7 mm 6 mps 744 mmHg 91%
16:00 +15°C° 1.7 mm 6 mps 743 mmHg 92%
17:00 +15°C° 0.6 mm 6 mps 743 mmHg 93%
18:00 +16°C° 0.6 mm 5 mps 743 mmHg 93%
19:00 +16°C° 0.6 mm 5 mps 743 mmHg 93%
20:00 +15°C° 0.1 mm 4 mps 743 mmHg 94%
21:00 +16°C° 0.1 mm 3 mps 744 mmHg 95%
22:00 +15°C° 0.1 mm 2 mps 744 mmHg 96%
23:00 +14°C° 0 mm 2 mps 744 mmHg 96%

27 September, Sunday

Time Temperature Precipitation Wind Pressure Humidity
00:00 +13°C° 0 mm 2 mps 745 mmHg 95%
01:00 +12°C° 0 mm 2 mps 745 mmHg 95%
02:00 +12°C° 0.5 mm 2 mps 745 mmHg 95%
03:00 +11°C° 0.5 mm 3 mps 745 mmHg 95%
04:00 +10°C° 0.5 mm 3 mps 745 mmHg 96%
05:00 +11°C° 0.3 mm 3 mps 745 mmHg 96%
06:00 +12°C° 0.3 mm 2 mps 745 mmHg 96%
07:00 +13°C° 0.3 mm 2 mps 745 mmHg 96%
08:00 +14°C° 0 mm 3 mps 745 mmHg 89%
09:00 +17°C° 0 mm 4 mps 745 mmHg 81%
10:00 +20°C° 0 mm 4 mps 745 mmHg 74%
11:00 +21°C° 0 mm 5 mps 745 mmHg 69%
12:00 +22°C° 0 mm 5 mps 745 mmHg 64%
13:00 +22°C° 0 mm 5 mps 745 mmHg 59%
14:00 +22°C° 0 mm 5 mps 745 mmHg 61%
15:00 +21°C° 0 mm 4 mps 745 mmHg 64%
16:00 +20°C° 0 mm 4 mps 745 mmHg 66%
17:00 +20°C° 0 mm 4 mps 746 mmHg 67%
18:00 +19°C° 0 mm 4 mps 746 mmHg 67%
19:00 +19°C° 0 mm 4 mps 746 mmHg 68%
20:00 +18°C° 0 mm 4 mps 746 mmHg 69%
21:00 +18°C° 0 mm 4 mps 747 mmHg 70%
22:00 +17°C° 0 mm 4 mps 747 mmHg 70%
23:00 +17°C° 0 mm 4 mps 747 mmHg 72%

28 September, Monday

Time Temperature Precipitation Wind Pressure Humidity
00:00 +17°C° 0 mm 4 mps 747 mmHg 74%
01:00 +17°C° 0 mm 4 mps 747 mmHg 76%
02:00 +15°C° 0 mm 4 mps 747 mmHg 79%
03:00 +15°C° 0 mm 4 mps 747 mmHg 81%
04:00 +15°C° 0 mm 4 mps 747 mmHg 83%
05:00 +15°C° 0 mm 4 mps 747 mmHg 84%
06:00 +14°C° 0 mm 4 mps 747 mmHg 85%
07:00 +14°C° 0 mm 4 mps 748 mmHg 86%
08:00 +15°C° 0 mm 4 mps 748 mmHg 80%
09:00 +15°C° 0 mm 5 mps 748 mmHg 74%
10:00 +16°C° 0 mm 5 mps 748 mmHg 68%
11:00 +17°C° 0 mm 4 mps 748 mmHg 65%
12:00 +18°C° 0 mm 4 mps 748 mmHg 63%
13:00 +18°C° 0 mm 4 mps 749 mmHg 60%
14:00 +17°C° 0.1 mm 4 mps 749 mmHg 62%
15:00 +15°C° 0.1 mm 4 mps 749 mmHg 64%
16:00 +16°C° 0.1 mm 3 mps 749 mmHg 66%
17:00 +14°C° 0 mm 3 mps 749 mmHg 70%
18:00 +12°C° 0 mm 3 mps 749 mmHg 73%
19:00 +11°C° 0 mm 3 mps 750 mmHg 77%
20:00 +10°C° 0 mm 3 mps 750 mmHg 79%
21:00 +10°C° 0 mm 3 mps 750 mmHg 82%
22:00 +9°C° 0 mm 3 mps 750 mmHg 84%
23:00 +10°C° 0 mm 3 mps 750 mmHg 83%

29 September, Tuesday

Time Temperature Precipitation Wind Pressure Humidity
00:00 +10°C° 0 mm 3 mps 750 mmHg 82%
01:00 +11°C° 0 mm 4 mps 750 mmHg 81%
02:00 +10°C° 0 mm 4 mps 750 mmHg 82%
03:00 +10°C° 0 mm 3 mps 750 mmHg 83%
04:00 +10°C° 0 mm 3 mps 750 mmHg 84%
05:00 +10°C° 0 mm 3 mps 751 mmHg 83%
06:00 +10°C° 0 mm 3 mps 751 mmHg 83%
07:00 +11°C° 0 mm 3 mps 751 mmHg 83%
08:00 +11°C° 0 mm 3 mps 751 mmHg 79%
09:00 +13°C° 0 mm 2 mps 752 mmHg 75%
10:00 +14°C° 0 mm 2 mps 752 mmHg 71%
11:00 +14°C° 0 mm 2 mps 752 mmHg 71%
12:00 +14°C° 0 mm 1 mps 752 mmHg 70%
13:00 +15°C° 0 mm 1 mps 752 mmHg 69%
14:00 +15°C° 0 mm 1 mps 752 mmHg 69%
15:00 +14°C° 0 mm 1 mps 752 mmHg 70%
16:00 +14°C° 0 mm 1 mps 752 mmHg 70%
17:00 +14°C° 0 mm 1 mps 753 mmHg 72%
18:00 +14°C° 0 mm 1 mps 753 mmHg 75%
19:00 +13°C° 0 mm 1 mps 753 mmHg 77%
20:00 +13°C° 0 mm 1 mps 753 mmHg 78%
21:00 +13°C° 0 mm 1 mps 754 mmHg 79%
22:00 +12°C° 0 mm 1 mps 754 mmHg 80%
23:00 +12°C° 0 mm 1 mps 754 mmHg 83%
Show more